| time (UTC) | temp F | wind direction | speed knots | gust knots | rain 1hr in | rain 24hr in | rain mn in | humidity % | barometer mb |
| 20260504045956 | 54 | 263 | 0.0 | 0.9 | 0.00 | 0.00 | 0.00 | 51 | 1004.7 |
| 20260504044455 | 54 | 263 | 0.0 | 0.9 | 0.00 | 0.00 | 0.00 | 51 | 1004.9 |
| 20260504041456 | 55 | 263 | 0.0 | 0.9 | 0.00 | 0.00 | 0.00 | 52 | 1005.1 |
| 20260504035955 | 56 | 301 | 0.0 | 0.9 | 0.00 | 0.00 | 0.00 | 48 | 1005.3 |
| 20260504034455 | 57 | 301 | 0.0 | 0.0 | 0.00 | 0.00 | 0.00 | 48 | 1005.4 |
| 20260504031456 | 59 | 302 | 0.0 | 0.9 | 0.00 | 0.00 | 0.00 | 44 | 1005.7 |
| 20260504025955 | 60 | 302 | 0.0 | 1.7 | 0.00 | 0.00 | 0.00 | 43 | 1005.6 |
| 20260504024456 | 61 | 287 | 0.9 | 1.7 | 0.00 | 0.00 | 0.00 | 42 | 1005.5 |
| 20260504022956 | 61 | 298 | 1.7 | 2.6 | 0.00 | 0.00 | 0.00 | 40 | 1005.4 |
| 20260504015956 | 63 | 305 | 0.0 | 1.7 | 0.00 | 0.00 | 0.00 | 37 | 1005.2 |
| 20260504014456 | 64 | 311 | 0.9 | 2.6 | 0.00 | 0.00 | 0.00 | 35 | 1005.0 |
| 20260504012956 | 66 | 306 | 0.9 | 2.6 | 0.00 | 0.00 | 0.00 | 34 | 1004.9 |
| 20260504011455 | 67 | 309 | 0.9 | 6.1 | 0.00 | 0.00 | 0.00 | 32 | 1004.7 |
| 20260504005956 | 69 | 300 | 2.6 | 7.0 | 0.00 | 0.00 | 0.00 | 30 | 1004.7 |
| 20260504004455 | 70 | 290 | 3.5 | 7.8 | 0.00 | 0.00 | 0.00 | 29 | 1004.6 |
| 20260504002957 | 71 | 295 | 4.3 | 10.4 | 0.00 | 0.00 | 0.00 | 27 | 1004.6 |
| 20260503234456 | 73 | 319 | 5.2 | 14.8 | 0.00 | 0.00 | 0.00 | 23 | 1004.4 |
| 20260503232956 | 73 | 308 | 7.8 | 13.9 | 0.00 | 0.00 | 0.00 | 23 | 1004.5 |
| 20260503231456 | 74 | 298 | 7.8 | 14.8 | 0.00 | 0.00 | 0.00 | 23 | 1004.6 |
| 20260503225956 | 74 | 294 | 7.8 | 17.4 | 0.00 | 0.00 | 0.00 | 24 | 1004.6 |
| 20260503224456 | 74 | 275 | 6.1 | 13.9 | 0.00 | 0.00 | 0.00 | 24 | 1004.4 |
| 20260503215956 | 74 | 271 | 8.7 | 15.6 | 0.00 | 0.00 | 0.00 | 27 | 1004.2 |
| 20260503214456 | 74 | 269 | 7.8 | 17.4 | 0.00 | 0.00 | 0.00 | 27 | 1004.3 |
| 20260503212956 | 74 | 280 | 5.2 | 17.4 | 0.00 | 0.00 | 0.00 | 29 | 1004.3 |
| 20260503211456 | 74 | 310 | 7.8 | 17.4 | 0.00 | 0.00 | 0.00 | 28 | 1004.3 |
| 20260503205956 | 74 | 295 | 8.7 | 17.4 | 0.00 | 0.00 | 0.00 | 27 | 1004.4 |
| 20260503204456 | 74 | 312 | 7.0 | 17.4 | 0.00 | 0.00 | 0.00 | 27 | 1004.4 |
| 20260503202956 | 74 | 285 | 7.8 | 17.4 | 0.00 | 0.00 | 0.00 | 28 | 1004.5 |
| 20260503201456 | 74 | 296 | 10.4 | 17.4 | 0.00 | 0.00 | 0.00 | 29 | 1004.7 |
| 20260503195956 | 74 | 298 | 7.0 | 17.4 | 0.00 | 0.00 | 0.00 | 31 | 1004.7 |
| 20260503192956 | 73 | 285 | 10.4 | 19.1 | 0.00 | 0.00 | 0.00 | 29 | 1004.9 |
| 20260503191457 | 73 | 308 | 9.6 | 17.4 | 0.00 | 0.00 | 0.00 | 31 | 1004.9 |
| 20260503185956 | 73 | 278 | 7.0 | 15.6 | 0.00 | 0.00 | 0.00 | 34 | 1005.0 |
| 20260503182956 | 72 | 242 | 8.7 | 17.4 | 0.00 | 0.00 | 0.00 | 37 | 1005.2 |
| 20260503175956 | 70 | 280 | 6.1 | 15.6 | 0.00 | 0.00 | 0.00 | 40 | 1005.7 |
| 20260503174457 | 69 | 260 | 6.1 | 17.4 | 0.00 | 0.00 | 0.00 | 42 | 1005.9 |
| 20260503172956 | 68 | 254 | 8.7 | 14.8 | 0.00 | 0.00 | 0.00 | 40 | 1006.1 |
| 20260503171456 | 67 | 230 | 8.7 | 17.4 | 0.00 | 0.00 | 0.00 | 40 | 1006.2 |
| 20260503081456 | 53 | 222 | 3.5 | 8.7 | 0.00 | 0.00 | 0.00 | 50 | 1012.4 |
| 20260503071456 | 52 | 234 | 0.9 | 10.4 | 0.00 | 0.00 | 0.00 | 50 | 1012.8 |